TimeCST,TemperatureF,Dew PointF,Humidity,Sea Level PressureIn,VisibilityMPH,Wind Direction,Wind SpeedMPH,Gust SpeedMPH,PrecipitationIn,Events,Conditions,WindDirDegrees,DateUTC
12:55 AM,45.5,38.5,76,30.25,10.0,North,5.8,-,N/A,,Clear,360,2012-11-15 06:55:00
1:55 AM,45.1,39.0,79,30.24,10.0,North,9.2,-,N/A,,Clear,360,2012-11-15 07:55:00
2:55 AM,43.2,38.1,82,30.22,10.0,North,8.1,-,N/A,,Clear,10,2012-11-15 08:55:00
3:55 AM,42.6,37.9,83,30.23,10.0,North,6.9,-,N/A,,Clear,10,2012-11-15 09:55:00
4:55 AM,42.3,38.1,85,30.24,10.0,NNE,5.8,-,N/A,,Clear,20,2012-11-15 10:55:00
5:55 AM,41.2,37.8,88,30.24,10.0,North,5.8,-,N/A,,Clear,10,2012-11-15 11:55:00
6:55 AM,41.5,38.5,89,30.26,10.0,North,6.9,-,N/A,,Clear,10,2012-11-15 12:55:00
7:55 AM,45.0,40.6,85,30.28,10.0,NNE,5.8,-,N/A,,Clear,20,2012-11-15 13:55:00
8:55 AM,50.9,44.4,78,30.29,10.0,NE,5.8,-,N/A,,Clear,40,2012-11-15 14:55:00
9:55 AM,56.7,47.1,70,30.29,10.0,NNE,8.1,-,N/A,,Clear,20,2012-11-15 15:55:00
10:55 AM,60.4,45.3,57,30.27,10.0,NNE,8.1,-,N/A,,Clear,20,2012-11-15 16:55:00
11:55 AM,62.1,45.7,55,30.25,10.0,North,6.9,-,N/A,,Clear,360,2012-11-15 17:55:00
12:55 PM,64.4,44.6,49,30.22,10.0,NE,8.1,-,N/A,,Clear,50,2012-11-15 18:55:00
1:55 PM,64.9,45.3,49,30.20,10.0,NNE,10.4,-,N/A,,Clear,30,2012-11-15 19:55:00
2:55 PM,64.6,45.5,50,30.19,10.0,North,4.6,-,N/A,,Clear,360,2012-11-15 20:55:00
3:55 PM,63.7,44.8,50,30.19,10.0,NNE,6.9,-,N/A,,Clear,30,2012-11-15 21:55:00
4:55 PM,60.6,46.6,60,30.21,10.0,NNE,3.5,-,N/A,,Clear,20,2012-11-15 22:55:00
5:55 PM,55.6,47.7,75,30.21,10.0,North,3.5,-,N/A,,Clear,10,2012-11-15 23:55:00
6:55 PM,55.8,46.9,72,30.23,10.0,North,3.5,-,N/A,,Clear,10,2012-11-16 00:55:00
7:55 PM,52.9,47.1,81,30.24,10.0,NNE,3.5,-,N/A,,Clear,30,2012-11-16 01:55:00
8:55 PM,52.0,46.6,82,30.26,10.0,NNE,4.6,-,N/A,,Clear,20,2012-11-16 02:55:00
9:55 PM,51.3,46.8,85,30.26,10.0,NNE,4.6,-,N/A,,Clear,30,2012-11-16 03:55:00
10:55 PM,51.3,46.8,85,30.27,10.0,ENE,5.8,-,N/A,,Clear,70,2012-11-16 04:55:00
11:55 PM,50.4,46.6,87,30.25,10.0,ENE,6.9,-,N/A,,Clear,60,2012-11-16 05:55:00